CW9336 Weather Reports


time (UTC)temp
C
wind
direction
speed
KPH
gust
KPH
rain 1hr
cm
rain 24hr
cm
rain mn
cm
humidity
%
barometer
mb
20260504081519 10 223 4.8 12.9 0.00 0.00 0.00 66 1007.0
20260504044528 11 217 4.8 17.7 0.00 0.00 0.00 64 1009.4
20260504043028 11 242 6.4 12.9 0.00 0.00 0.00 64 1009.5
20260504041527 11 230 4.8 25.7 0.00 0.00 0.00 64 1009.6
20260504040031 10 213 6.4 17.7 0.00 0.00 0.00 64 1009.7
20260504034539 10 232 4.8 14.5 0.00 0.00 0.00 65 1009.9
20260504033020 10 256 6.4 14.5 0.00 0.00 0.00 65 1009.9
20260504031518 10 242 8.0 17.7 0.00 0.00 0.00 65 1010.0
20260504030029 10 232 6.4 14.5 0.00 0.00 0.00 65 1010.2
20260504024519 10 201 8.0 22.5 0.00 0.00 0.00 65 1010.4
20260504023020 10 234 6.4 16.1 0.00 0.00 0.00 66 1010.6
20260504021519 10 245 4.8 14.5 0.00 0.00 0.00 67 1010.7
20260504020025 10 224 4.8 11.3 0.00 0.00 0.00 67 1010.8
20260504014525 11 221 4.8 14.5 0.00 0.00 0.00 66 1010.7
20260504013026 11 236 3.2 11.3 0.00 0.00 0.00 65 1010.7
20260504011526 11 242 4.8 11.3 0.00 0.00 0.00 64 1010.8
20260504010026 11 234 3.2 6.4 0.00 0.00 0.00 62 1010.9
20260504004503 11 235 3.2 9.7 0.00 0.00 0.00 62 1010.9
20260504003004 11 212 3.2 11.3 0.00 0.00 0.00 61 1011.0
20260504001505 11 232 3.2 9.7 0.00 0.00 0.00 60 1011.1
20260504000010 11 299 1.6 11.3 0.00 0.00 0.00 60 1011.2
20260503234511 12 242 6.4 16.1 0.00 0.00 0.00 59 1011.3
20260503233009 12 205 3.2 11.3 0.00 0.00 0.00 60 1011.5
20260503231516 12 214 1.6 14.5 0.00 0.00 0.00 59 1011.5
20260503230013 13 223 6.4 25.7 0.00 0.00 0.00 56 1011.5
20260503224515 14 225 8.0 24.1 0.00 0.00 0.00 54 1011.4
20260503223022 16 352 6.4 19.3 0.00 0.00 0.00 48 1011.1
20260503221516 16 225 4.8 24.1 0.00 0.00 0.00 42 1011.0
20260503220023 16 303 8.0 24.1 0.00 0.00 0.00 43 1011.0
20260503214521 16 11 6.4 20.9 0.00 0.00 0.00 42 1010.8
20260503213027 16 241 8.0 20.9 0.00 0.00 0.00 42 1011.0
20260503211523 16 243 4.8 19.3 0.00 0.00 0.00 40 1011.0
20260503210022 16 255 11.3 24.1 0.00 0.00 0.00 37 1011.0
20260503204531 17 9 6.4 20.9 0.00 0.00 0.00 1011.0
20260503203025 17 246 6.4 20.9 0.00 0.00 0.00 38 1011.3
20260503201526 17 193 8.0 25.7 0.00 0.00 0.00 37 1011.3
20260503200026 17 253 6.4 17.7 0.00 0.00 0.00 36 1011.6
20260503194528 17 230 8.0 22.5 0.00 0.00 0.00 36 1011.8
20260503193025 17 323 9.7 25.7 0.00 0.00 0.00 1011.9
20260503191527 17 194 6.4 22.5 0.00 0.00 0.00 40 1012.0
20260503190027 17 341 9.7 30.6 0.00 0.00 0.00 38 1012.2
20260503184530 17 244 6.4 25.7 0.00 0.00 0.00 36 1012.5
20260503183040 17 300 6.4 24.1 0.00 0.00 0.00 1012.6
20260503181508 16 203 8.0 27.4 0.00 0.00 0.00 36 1012.9
20260503180021 16 246 11.3 25.7 0.00 0.00 0.00 37 1013.2
20260503174519 16 263 8.0 29.0 0.00 0.00 0.00 1013.3
20260503173013 17 265 4.8 29.0 0.00 0.00 0.00 40 1013.5
20260503171517 16 142 3.2 22.5 0.00 0.00 0.00 41 1013.7